THURAYA-3 (32404 NORAD) Tracking and Keplerian Element Data

This shows tracking and keplerian element data for the satellite.

Feedback or suggestion? Click here.




ElementValue
Catalog32404
NameTHURAYA-3
Epoch Orbit4880
Epoch Day130.75215461
Epoch Year2021
RAAN16.0693
Inclination3.8373
Eccentricity0.0004746
Argument of Perigee28.5141
Mean Anonmoly193.4518
Mean Motion1.002715
Decay Rate-2.98E-06
L11 32404U 08001A 21130.75215461 -.00000298 00000-0 00000-0 0 9990
L22 32404 3.8373 16.0693 0004746 28.5141 193.4518 1.00271500 48803

Live tracking and technical data element details for THURAYA-3 (NORAD 32404). THURAYA-3 can be tracked NOW for your location showing map with azimuth and elevation plus other details from your city location.

Track the satellite on the map from your city or location and see movement details for azimuth, elevation, latitude, longitude, range, height, and movement on the map or in text.







IsCatalogInMostPopularTable: catalog: 32404, numindb: 890
Update: records affected: 1



GetName: 32404 THURAYA-3

Hit Count: updated at: Tue, 11 May 2021 20:50:55 GMT